GONETS-M 25

导读

GONETS-M 25属于俄罗斯“信使”(Gonets)低轨通信卫星系统的M型改进卫星,由俄罗斯应用力学设计局研发,于2022年10月22日,由独联体(CIS)从普列谢茨克航天发射场发射入轨。卫星质量约280公斤,设计寿命5-7年,运行在约1400公里的近地轨道,主要为俄罗斯及周边区域提供移动通信、数据传输服务,补充完善“信使”系统的覆盖能力。

基本信息
目录编号:
54152
目录名称:
GONETS-M 25
国际标识:
2022-139C
轨道中心:
EARTH
卫星名称:
GONETS-M 25
卫星全名:
--
卫星状态:
在轨 (已飞行1338 天)
发射日期:
2022-10-22 UTC
国别 :
俄罗斯(独联体) (CIS)
星等 :
--
轨道信息
数据来源 国际轨道数据 AOE轨道数据
星历时间 2026-06-20T20:32:35+0800
12小时前
查看轨道信息
2026-06-19T17:00:00+0800
1天前
查看轨道信息
半长轴 7872.513km 7872.511km
偏心率 0.002004 0.0019744
轨道倾角 82.505° 82.506°
近地点辐角 221.201° 224.846°
升交点赤经 345.967° 346.679°
平近点角 138.756° 42.691°
近地点 1478.599km 1478.83km
远地点 1510.153km 1509.918km
周期 115.859分钟 115.859分钟
每日圈数 12.428901 12.428906
详细信息
使用方式:
暂无
2D轨道图
3D轨道图
轨道高度分析图
轨道倾角分析图
轨道综合分析图
查看轨道综合分析图